Wind_Speed
9 8 7 6 5 4 3 2 2 3 3 3 3 2 2 2 2 3 3 2 2 3 3 4 4 4 4 5 5 5 5 5 5 6 7 7 8 7 7 7 7 7 7
9 8 7 6 6 5 4 4 3 3 4 4 3 3 3 3 3 4 3 3 3 3 4 5 5 4 5 5 5 6 5 6 6 7 7 8 8 8 8 8 8 8 7
10 9 8 7 6 5 5 4 4 4 4 4 4 4 4 3 3 3 3 4 4 4 5 5 5 5 5 5 6 6 6 6 6 6 7 8 8 8 9 9 9 9 8
10 9 9 8 7 6 6 5 5 5 4 5 5 4 4 4 4 3 4 4 4 4 5 5 5 5 5 5 6 6 6 6 6 7 7 8 8 8 9 9 9 10 10
12 11 11 10 8 8 7 6 5 5 5 5 5 4 4 4 4 4 4 4 4 5 4 4 4 5 5 5 5 5 5 6 6 7 7 7 7 8 8 8 9 9 10
14 12 12 11 10 9 8 7 6 6 5 5 5 5 4 5 5 5 5 4 5 5 5 4 4 4 5 5 4 4 5 5 6 6 6 6 7 8 8 8 9 9 10
15 14 13 12 12 11 10 9 8 7 7 6 6 5 5 5 5 5 5 5 5 5 5 5 5 4 4 4 4 5 5 5 6 6 7 7 8 9 9 10 9 9 10
15 14 14 14 14 13 12 11 10 9 8 7 7 6 6 6 5 6 6 5 5 5 5 5 5 4 4 5 5 5 5 5 6 7 7 8 8 9 9 10 10 11 10
14 15 15 15 15 14 14 13 12 11 10 9 8 8 7 7 7 6 5 6 5 5 5 5 6 6 6 6 6 7 6 7 8 8 8 9 9 9 10 10 11 11 11
14 14 15 15 15 16 15 14 14 13 12 11 10 10 10 9 9 8 7 7 6 6 6 6 7 7 7 7 8 9 9 9 9 9 10 10 11 11 11 11 12 12 12
15 15 15 15 16 16 16 15 15 14 13 13 13 12 12 11 11 11 10 9 9 8 8 9 9 9 10 10 10 11 11 11 12 12 12 13 13 13 13 13 14 14 15
14 15 15 16 16 16 17 17 17 16 15 14 14 14 14 14 14 13 13 12 12 12 12 12 12 13 13 13 13 13 14 14 14 15 15 16 16 16 17 17 17 18 18
14 15 15 16 16 16 17 18 18 18 16 16 16 16 16 17 16 16 16 15 15 15 15 15 16 16 16 16 16 16 17 17 17 18 18 19 19 20 20 21 21 22 22
14 15 15 16 17 17 18 19 19 18 18 18 18 18 18 18 18 18 18 18 18 18 18 18 19 19 20 19 20 20 21 21 21 22 22 23 23 24 24 25 25 26 26
15 15 16 17 18 18 18 19 20 20 20 21 20 20 20 20 20 20 20 20 20 20 20 20 21 22 22 22 23 24 24 25 25 26 26 27 27 28 28 29 29 29 29
14 16 16 18 19 19 20 19 20 20 20 20 20 21 22 22 21 22 22 22 23 23 23 23 24 24 25 25 25 26 27 27 28 28 28 29 30 31 31 31 32 32 32
14 16 17 18 19 19 20 20 20 20 20 20 21 20 21 21 22 23 23 24 24 25 25 26 27 27 27 28 29 29 29 30 31 31 32 32 33 34 34 34 35 35 36
15 16 17 18 18 19 19 20 21 22 22 21 21 22 22 22 23 24 25 26 27 27 27 27 28 29 29 30 31 32 32 33 34 34 35 35 35 36 36 37 38 38 39
15 16 17 17 18 19 19 20 21 21 22 22 22 23 23 24 24 25 26 27 28 29 29 29 29 30 31 32 33 34 34 35 35 36 36 37 38 38 39 39 40 41 42
15 16 17 18 19 19 19 19 20 20 20 22 23 24 25 25 26 26 27 27 28 29 30 31 31 32 32 34 35 36 36 36 37 37 38 39 40 41 41 42 43 44 45
16 16 16 16 17 17 18 19 19 19 21 22 23 24 26 27 28 28 29 29 29 31 31 33 34 34 35 36 36 37 37 37 39 39 40 41 42 43 44 45 46 47 48
17 18 18 18 18 18 19 20 21 22 22 23 24 25 26 28 28 29 30 30 31 32 33 34 35 36 37 37 38 38 39 40 41 42 43 44 45 46 47 48 49 49 50
18 18 18 18 18 19 20 20 21 23 24 24 25 27 28 28 29 29 30 30 31 32 33 34 36 36 37 38 39 40 41 43 44 45 47 48 49 49 50 52 53 53 54
18 18 18 18 18 19 20 21 22 23 25 26 27 28 29 29 30 31 32 32 32 32 33 35 36 37 38 39 40 42 44 45 47 48 49 50 50 51 53 55 56 56 57
19 19 20 20 21 21 22 23 24 25 26 26 27 28 29 29 30 30 31 31 32 33 35 36 38 39 40 41 42 44 45 46 47 48 50 51 52 52 54 56 57 58 59
20 21 21 22 23 24 24 24 25 26 26 27 28 28 30 31 31 31 31 32 33 34 36 37 39 40 41 42 43 45 47 48 49 50 51 52 53 54 55 56 58 60 61
Wind_Direction
244 243 232 228 227 226 235 242 240 229 232 228 235 245 246 238 253 261 264 260 265 272 268 263 266 260 257 254 249 246 252 259 262 263 263 264 260 261 263 267 269 269 270
241 242 242 243 243 234 237 247 250 246 237 235 233 241 246 245 255 256 264 271 272 276 277 273 267 264 256 256 258 252 257 262 264 266 265 264 263 260 261 267 266 266 268
239 241 245 245 248 246 249 252 257 258 247 241 243 247 247 247 251 255 258 265 269 280 281 280 268 265 263 262 262 264 265 268 271 269 266 266 267 264 263 263 264 264 266
238 241 244 248 251 250 254 257 259 258 256 251 252 252 249 245 248 257 259 265 276 286 285 282 270 267 268 268 267 268 271 277 280 278 275 271 267 267 267 264 267 264 263
238 241 244 248 252 253 255 258 257 255 259 255 254 254 252 254 256 260 260 265 275 282 286 282 273 269 269 273 274 272 272 277 285 284 281 278 271 268 273 273 272 270 267
237 241 245 249 252 252 254 257 259 259 259 254 254 257 256 259 262 262 264 266 273 273 279 279 281 280 273 275 278 278 274 279 287 289 287 286 281 276 277 279 277 276 272
235 239 244 248 249 251 255 257 258 259 261 257 258 260 259 260 265 266 263 265 265 267 273 276 278 280 281 273 277 284 283 285 286 287 288 289 283 278 277 280 281 281 278
233 238 242 247 249 251 252 254 257 258 259 260 260 262 260 261 261 265 267 265 265 269 273 271 269 270 280 282 282 284 286 284 284 287 290 292 292 289 283 282 281 282 283
236 241 247 249 250 249 249 250 253 254 256 257 259 260 258 258 262 262 264 266 266 272 271 273 273 274 276 279 282 283 285 287 285 286 288 288 291 293 290 285 282 282 282
238 238 243 250 250 249 248 248 250 253 254 257 258 258 259 258 259 262 266 269 272 271 271 275 274 279 280 279 281 281 283 284 285 287 287 287 289 291 290 286 283 283 285
239 242 248 249 250 249 247 248 249 252 254 257 259 258 259 259 261 262 265 268 270 270 271 274 275 277 280 279 282 281 282 283 284 285 286 286 288 288 289 288 288 287 286
242 247 251 250 250 250 250 251 253 254 254 256 258 259 260 261 263 264 265 266 269 271 272 273 275 277 278 278 276 278 281 282 283 284 285 286 286 286 287 287 288 287 286
247 250 251 249 250 250 251 254 256 255 255 258 259 260 261 263 263 266 267 268 270 271 272 273 275 276 277 278 279 280 280 279 281 282 283 284 285 285 285 286 286 285 284
251 250 249 248 251 253 254 256 256 255 257 261 263 263 263 264 264 266 269 271 272 272 273 274 276 277 277 277 278 280 279 279 280 281 282 283 283 283 283 284 284 283 282
253 249 251 252 252 255 258 258 257 256 258 261 263 264 264 265 265 267 268 269 272 274 275 275 275 278 278 278 279 280 280 280 280 281 282 282 282 282 282 282 282 282 281
252 251 253 254 254 257 257 257 257 255 258 262 264 266 267 266 267 267 268 270 272 274 275 277 278 279 281 281 282 282 283 283 282 283 283 283 283 283 283 282 281 281 281
259 256 256 257 257 257 257 257 256 255 259 262 264 268 270 268 268 268 269 272 273 275 277 277 278 279 280 280 281 281 282 284 283 283 284 284 283 283 283 283 283 282 281
263 264 261 260 260 259 258 258 257 259 260 263 266 268 270 272 272 272 272 273 275 276 277 278 278 279 280 281 282 283 283 282 282 283 284 284 283 283 283 283 283 282 282
267 267 266 263 263 263 261 261 263 263 264 267 267 269 271 272 274 275 275 276 277 278 277 278 279 280 281 282 283 284 284 283 283 283 283 284 283 283 283 283 282 282 282
270 266 267 267 266 266 265 264 266 266 267 267 267 268 271 273 273 275 277 278 279 280 279 279 279 279 281 282 282 283 283 283 284 284 283 283 283 284 284 283 283 282 282
273 271 271 273 271 270 266 264 266 267 269 269 269 269 270 271 274 276 278 279 281 281 282 282 281 281 282 283 283 283 283 284 285 286 286 285 285 285 284 284 283 283 283
278 274 274 275 272 270 268 266 266 267 269 272 274 273 274 277 276 277 278 280 281 282 284 284 283 284 283 283 282 282 282 283 285 285 286 287 287 286 285 285 284 283 282
281 278 276 274 271 270 270 271 271 269 271 275 276 277 277 279 280 280 281 282 282 283 284 284 285 284 285 284 285 285 284 285 285 285 286 286 286 286 286 286 286 285 284
281 278 276 273 273 272 275 276 275 274 277 279 280 280 280 282 282 282 282 284 285 286 287 288 287 287 286 286 286 286 286 286 287 287 287 287 286 287 287 287 286 286 286
282 278 277 278 278 277 277 278 279 280 282 282 283 283 284 285 285 285 285 286 287 288 289 289 289 289 289 289 289 289 289 290 290 290 289 289 288 288 288 287 287 286 286
284 280 279 279 279 279 280 280 282 283 282 284 285 285 285 286 287 287 287 287 289 290 291 292 291 291 292 293 293 293 293 293 293 292 292 292 291 290 290 289 288 288 287
Height
5889 5890 5890 5891 5892 5893 5893 5894 5894 5894 5894 5894 5895 5895 5895 5895 5896 5896 5896 5896 5897 5897 5898 5898 5899 5899 5900 5900 5901 5902 5902 5903 5903 5904 5904 5904 5904 5905 5905 5905 5906 5906 5906
5888 5889 5890 5891 5892 5892 5893 5893 5894 5894 5894 5894 5895 5895 5895 5895 5895 5895 5895 5896 5896 5897 5897 5898 5898 5898 5899 5899 5900 5900 5901 5901 5902 5902 5902 5902 5903 5903 5903 5904 5904 5904 5904
5887 5888 5889 5890 5891 5892 5893 5893 5893 5893 5894 5894 5894 5894 5894 5894 5895 5895 5895 5895 5896 5896 5896 5897 5897 5897 5898 5898 5899 5899 5899 5900 5900 5900 5901 5901 5901 5901 5901 5902 5902 5902 5902
5885 5887 5888 5889 5891 5891 5892 5892 5893 5893 5893 5893 5894 5894 5894 5894 5894 5894 5895 5895 5895 5895 5895 5896 5896 5896 5897 5897 5898 5898 5898 5899 5899 5899 5899 5899 5899 5899 5899 5899 5899 5900 5900
5883 5885 5887 5888 5889 5890 5891 5892 5892 5892 5893 5893 5893 5893 5893 5893 5893 5894 5894 5894 5894 5894 5895 5895 5895 5895 5896 5896 5896 5897 5897 5897 5897 5897 5897 5897 5897 5897 5897 5897 5897 5897 5898
5881 5883 5885 5887 5888 5889 5890 5891 5891 5892 5892 5892 5893 5893 5893 5893 5893 5893 5893 5893 5893 5894 5894 5894 5894 5894 5895 5895 5895 5895 5895 5896 5896 5896 5895 5895 5895 5895 5895 5895 5895 5895 5895
5879 5881 5883 5885 5886 5888 5889 5889 5890 5891 5891 5891 5892 5892 5892 5892 5892 5892 5892 5892 5892 5892 5893 5893 5893 5893 5893 5894 5894 5894 5894 5894 5894 5894 5894 5893 5893 5893 5893 5893 5893 5893 5893
5877 5879 5881 5883 5884 5886 5887 5888 5888 5889 5890 5890 5890 5891 5891 5892 5891 5891 5891 5891 5891 5891 5892 5892 5892 5892 5892 5892 5892 5892 5892 5892 5892 5892 5892 5891 5891 5891 5891 5891 5891 5891 5890
5874 5877 5878 5880 5882 5883 5885 5886 5886 5887 5888 5888 5889 5890 5890 5890 5890 5890 5890 5890 5890 5890 5891 5891 5891 5891 5891 5891 5891 5891 5891 5891 5890 5890 5890 5890 5889 5889 5889 5888 5888 5888 5887
5872 5874 5876 5877 5879 5881 5882 5883 5884 5885 5886 5886 5887 5887 5888 5888 5889 5889 5889 5889 5889 5889 5889 5890 5890 5890 5889 5889 5889 5889 5889 5888 5888 5888 5887 5887 5887 5887 5886 5886 5885 5885 5885
5870 5871 5873 5874 5876 5878 5879 5880 5881 5882 5883 5884 5884 5885 5886 5886 5886 5887 5887 5887 5887 5887 5888 5888 5888 5887 5887 5887 5886 5886 5886 5886 5886 5885 5885 5885 5884 5884 5883 5883 5882 5882 5881
5867 5868 5870 5871 5872 5874 5876 5877 5878 5879 5880 5881 5881 5882 5883 5883 5884 5884 5884 5885 5885 5885 5885 5885 5885 5884 5884 5884 5884 5884 5883 5883 5882 5882 5881 5881 5880 5880 5880 5879 5879 5878 5877
5864 5866 5867 5868 5869 5870 5872 5874 5875 5876 5877 5878 5878 5879 5880 5880 5881 5881 5881 5881 5882 5882 5882 5882 5881 5881 5881 5881 5880 5880 5879 5879 5878 5878 5877 5877 5876 5875 5875 5874 5874 5873 5872
5861 5862 5863 5864 5866 5867 5868 5870 5871 5872 5873 5874 5875 5875 5876 5876 5877 5878 5878 5878 5878 5878 5878 5878 5877 5876 5876 5876 5876 5875 5875 5874 5874 5873 5873 5872 5871 5870 5870 5869 5868 5867 5866
5858 5859 5860 5861 5862 5863 5864 5865 5867 5868 5869 5870 5871 5871 5872 5872 5872 5873 5873 5873 5874 5874 5874 5873 5872 5871 5870 5871 5870 5870 5869 5869 5868 5867 5867 5866 5865 5864 5863 5862 5861 5860 5859
5854 5856 5857 5858 5859 5859 5860 5861 5862 5864 5865 5865 5866 5867 5867 5868 5868 5868 5868 5868 5868 5869 5868 5868 5867 5866 5865 5865 5864 5864 5863 5862 5862 5861 5860 5858 5857 5856 5855 5854 5853 5852 5851
5851 5852 5853 5853 5854 5855 5856 5857 5857 5859 5860 5861 5861 5862 5862 5863 5863 5863 5863 5863 5863 5863 5863 5862 5861 5860 5859 5859 5858 5857 5857 5856 5854 5853 5852 5850 5849 5848 5846 5845 5844 5842 5841
5847 5848 5849 5850 5850 5850 5851 5852 5853 5854 5855 5856 5856 5857 5857 5857 5858 5858 5858 5858 5857 5856 5856 5855 5854 5853 5852 5852 5850 5849 5849 5848 5846 5845 5843 5842 5840 5839 5837 5835 5834 5832 5830
5844 5844 5845 5846 5846 5846 5847 5848 5848 5849 5850 5851 5851 5852 5852 5852 5852 5852 5851 5851 5850 5850 5849 5848 5847 5846 5845 5844 5842 5841 5840 5838 5837 5836 5834 5832 5830 5828 5827 5825 5823 5821 5819
5841 5841 5842 5842 5842 5842 5843 5843 5844 5844 5845 5845 5845 5846 5846 5846 5846 5845 5845 5844 5844 5843 5842 5841 5840 5838 5837 5836 5834 5832 5831 5829 5827 5826 5824 5822 5820 5817 5815 5813 5811 5809 5806
5838 5838 5838 5838 5838 5838 5838 5839 5839 5840 5840 5840 5840 5840 5840 5840 5839 5839 5838 5837 5836 5835 5834 5833 5831 5830 5829 5827 5825 5823 5821 5819 5817 5815 5813 5811 5808 5806 5804 5801 5798 5795 5793
5834 5834 5834 5834 5834 5834 5834 5834 5835 5835 5835 5834 5834 5834 5833 5833 5832 5831 5831 5830 5829 5827 5826 5824 5823 5821 5819 5817 5815 5813 5811 5809 5806 5804 5801 5798 5795 5792 5790 5787 5784 5781 5778
5830 5829 5829 5830 5830 5830 5829 5829 5830 5829 5829 5829 5828 5828 5827 5826 5825 5824 5823 5821 5820 5819 5817 5816 5814 5812 5810 5807 5805 5802 5799 5797 5794 5791 5788 5785 5782 5778 5775 5771 5768 5765 5762
5825 5825 5825 5825 5825 5825 5825 5825 5824 5824 5823 5823 5822 5821 5820 5818 5817 5816 5815 5813 5812 5810 5808 5806 5804 5802 5799 5796 5794 5791 5788 5784 5781 5777 5774 5771 5767 5764 5759 5755 5751 5747 5744
5821 5820 5820 5820 5820 5820 5820 5819 5819 5818 5817 5816 5815 5814 5812 5811 5809 5808 5807 5805 5803 5801 5799 5796 5794 5791 5788 5785 5782 5779 5775 5771 5767 5764 5760 5756 5752 5748 5743 5738 5734 5729 5725
5816 5815 5815 5815 5814 5814 5813 5813 5812 5811 5810 5809 5808 5807 5805 5803 5801 5800 5798 5796 5794 5792 5789 5786 5783 5780 5776 5773 5769 5765 5761 5757 5753 5749 5744 5740 5735 5731 5727 5721 5715 5710 5706